Previsão horária em Aarberg

Hoje, 21 Outubro, Quarta-feira

Tempo Temperatura Precipitação Vento Pressão Humidade
00:00 +10°C° 0 mm 1 m/s 714 mmHg 73%
01:00 +10°C° 0 mm 1 m/s 714 mmHg 74%
02:00 +9°C° 0 mm 1 m/s 714 mmHg 75%
03:00 +9°C° 0 mm 1 m/s 713 mmHg 76%
04:00 +9°C° 0 mm 1 m/s 714 mmHg 77%
05:00 +9°C° 0 mm 1 m/s 714 mmHg 77%
06:00 +9°C° 0 mm 1 m/s 714 mmHg 78%
07:00 +11°C° 0 mm 1 m/s 714 mmHg 72%
08:00 +13°C° 0 mm 1 m/s 715 mmHg 67%
09:00 +15°C° 0 mm 1 m/s 715 mmHg 61%
10:00 +16°C° 0 mm 1 m/s 715 mmHg 59%
11:00 +19°C° 0 mm 1 m/s 715 mmHg 57%
12:00 +20°C° 0 mm 1 m/s 716 mmHg 55%
13:00 +19°C° 0 mm 1 m/s 716 mmHg 60%
14:00 +19°C° 0 mm 1 m/s 715 mmHg 66%
15:00 +16°C° 0 mm 0 m/s 715 mmHg 71%
16:00 +15°C° 0 mm 0 m/s 716 mmHg 73%
17:00 +15°C° 0 mm 1 m/s 716 mmHg 76%
18:00 +13°C° 0 mm 1 m/s 717 mmHg 78%
19:00 +13°C° 0 mm 1 m/s 717 mmHg 78%
20:00 +11°C° 0 mm 0 m/s 717 mmHg 78%
21:00 +11°C° 0 mm 0 m/s 718 mmHg 78%
22:00 +10°C° 0 mm 0 m/s 718 mmHg 79%
23:00 +10°C° 0 mm 0 m/s 718 mmHg 80%

Amanhã, 22 Outubro, Quinta-feira

Tempo Temperatura Precipitação Vento Pressão Humidade
00:00 +10°C° 0 mm 0 m/s 718 mmHg 81%
01:00 +10°C° 0 mm 0 m/s 718 mmHg 81%
02:00 +10°C° 0 mm 0 m/s 718 mmHg 81%
03:00 +11°C° 0 mm 1 m/s 717 mmHg 80%
04:00 +10°C° 0 mm 1 m/s 718 mmHg 80%
05:00 +10°C° 0 mm 1 m/s 718 mmHg 80%
06:00 +10°C° 0 mm 1 m/s 718 mmHg 79%
07:00 +12°C° 0 mm 1 m/s 718 mmHg 76%
08:00 +13°C° 0 mm 1 m/s 718 mmHg 72%
09:00 +14°C° 0 mm 1 m/s 719 mmHg 68%
10:00 +14°C° 0.2 mm 1 m/s 719 mmHg 74%
11:00 +14°C° 0.2 mm 1 m/s 718 mmHg 79%
12:00 +13°C° 0.2 mm 1 m/s 718 mmHg 84%
13:00 +13°C° 0.3 mm 1 m/s 718 mmHg 86%
14:00 +13°C° 0.3 mm 1 m/s 718 mmHg 88%
15:00 +13°C° 0.3 mm 1 m/s 718 mmHg 90%
16:00 +13°C° 0 mm 1 m/s 718 mmHg 89%
17:00 +13°C° 0 mm 1 m/s 718 mmHg 88%
18:00 +13°C° 0 mm 1 m/s 718 mmHg 87%
19:00 +13°C° 0 mm 1 m/s 718 mmHg 88%
20:00 +12°C° 0 mm 1 m/s 718 mmHg 89%
21:00 +12°C° 0 mm 1 m/s 718 mmHg 89%
22:00 +12°C° 0.1 mm 1 m/s 718 mmHg 90%
23:00 +12°C° 0.1 mm 1 m/s 717 mmHg 90%

Depois de amanhã, 23 Outubro, Sexta-feira

Tempo Temperatura Precipitação Vento Pressão Humidade
00:00 +12°C° 0.1 mm 1 m/s 717 mmHg 91%
01:00 +12°C° 0.8 mm 1 m/s 717 mmHg 93%
02:00 +12°C° 0.8 mm 1 m/s 717 mmHg 95%
03:00 +12°C° 0.8 mm 1 m/s 717 mmHg 97%
04:00 +12°C° 1.4 mm 1 m/s 716 mmHg 97%
05:00 +12°C° 1.4 mm 1 m/s 716 mmHg 97%
06:00 +12°C° 1.4 mm 1 m/s 716 mmHg 97%
07:00 +12°C° 2.2 mm 1 m/s 716 mmHg 98%
08:00 +13°C° 2.2 mm 1 m/s 716 mmHg 98%
09:00 +12°C° 2.2 mm 0 m/s 716 mmHg 98%
10:00 +13°C° 2.4 mm 1 m/s 717 mmHg 98%
11:00 +13°C° 2.4 mm 1 m/s 717 mmHg 97%
12:00 +13°C° 2.4 mm 1 m/s 717 mmHg 97%
13:00 +13°C° 1.3 mm 2 m/s 717 mmHg 96%
14:00 +13°C° 1.3 mm 2 m/s 717 mmHg 95%
15:00 +13°C° 1.3 mm 3 m/s 717 mmHg 94%
16:00 +12°C° 0.4 mm 3 m/s 717 mmHg 94%
17:00 +13°C° 0.4 mm 2 m/s 718 mmHg 94%
18:00 +12°C° 0.4 mm 2 m/s 718 mmHg 94%
19:00 +12°C° 0.1 mm 2 m/s 718 mmHg 94%
20:00 +12°C° 0.1 mm 2 m/s 718 mmHg 93%
21:00 +10°C° 0.1 mm 2 m/s 719 mmHg 93%
22:00 +10°C° 0 mm 2 m/s 719 mmHg 93%
23:00 +10°C° 0 mm 2 m/s 719 mmHg 93%

24 Outubro, Sábado

Tempo Temperatura Precipitação Vento Pressão Humidade
00:00 +10°C° 0 mm 2 m/s 719 mmHg 93%
01:00 +10°C° 0 mm 2 m/s 719 mmHg 93%
02:00 +9°C° 0 mm 2 m/s 719 mmHg 94%
03:00 +9°C° 0 mm 2 m/s 720 mmHg 95%
04:00 +9°C° 0 mm 2 m/s 720 mmHg 95%
05:00 +10°C° 0 mm 1 m/s 720 mmHg 95%
06:00 +10°C° 0 mm 1 m/s 720 mmHg 95%
07:00 +11°C° 0 mm 1 m/s 720 mmHg 91%
08:00 +12°C° 0 mm 1 m/s 720 mmHg 87%
09:00 +13°C° 0 mm 1 m/s 721 mmHg 84%
10:00 +14°C° 0 mm 1 m/s 720 mmHg 78%
11:00 +15°C° 0 mm 1 m/s 720 mmHg 73%
12:00 +16°C° 0 mm 1 m/s 720 mmHg 67%
13:00 +16°C° 0 mm 1 m/s 720 mmHg 70%
14:00 +16°C° 0 mm 1 m/s 719 mmHg 72%
15:00 +15°C° 0 mm 1 m/s 719 mmHg 75%
16:00 +14°C° 0 mm 1 m/s 719 mmHg 80%
17:00 +12°C° 0 mm 1 m/s 719 mmHg 86%
18:00 +10°C° 0 mm 1 m/s 719 mmHg 91%
19:00 +10°C° 0 mm 1 m/s 719 mmHg 91%
20:00 +10°C° 0 mm 1 m/s 718 mmHg 91%
21:00 +9°C° 0 mm 1 m/s 718 mmHg 91%
22:00 +9°C° 0 mm 1 m/s 718 mmHg 91%
23:00 +9°C° 0 mm 1 m/s 718 mmHg 91%

25 Outubro, Domingo

Tempo Temperatura Precipitação Vento Pressão Humidade
00:00 +9°C° 0 mm 1 m/s 717 mmHg 92%
01:00 +9°C° 0 mm 1 m/s 717 mmHg 92%
02:00 +8°C° 0 mm 1 m/s 716 mmHg 92%
03:00 +8°C° 0 mm 1 m/s 716 mmHg 92%
04:00 +8°C° 0 mm 1 m/s 715 mmHg 91%
05:00 +8°C° 0 mm 1 m/s 715 mmHg 91%
06:00 +8°C° 0 mm 1 m/s 715 mmHg 90%
07:00 +10°C° 0 mm 1 m/s 714 mmHg 84%
08:00 +12°C° 0 mm 1 m/s 714 mmHg 79%
09:00 +14°C° 0 mm 1 m/s 714 mmHg 73%
10:00 +15°C° 0 mm 1 m/s 714 mmHg 69%
11:00 +16°C° 0 mm 2 m/s 713 mmHg 64%
12:00 +17°C° 0 mm 2 m/s 713 mmHg 60%
13:00 +17°C° 0 mm 2 m/s 713 mmHg 63%
14:00 +16°C° 0 mm 2 m/s 712 mmHg 66%
15:00 +16°C° 0 mm 2 m/s 712 mmHg 69%
16:00 +15°C° 0 mm 2 m/s 712 mmHg 74%
17:00 +13°C° 0 mm 2 m/s 712 mmHg 79%
18:00 +10°C° 0 mm 2 m/s 712 mmHg 83%
19:00 +10°C° 0.1 mm 2 m/s 712 mmHg 85%
20:00 +10°C° 0.1 mm 2 m/s 712 mmHg 86%
21:00 +11°C° 0.1 mm 1 m/s 713 mmHg 88%
22:00 +9°C° 2.1 mm 2 m/s 712 mmHg 91%
23:00 +8°C° 2.1 mm 2 m/s 712 mmHg 93%

26 Outubro, Segunda-feira

Tempo Temperatura Precipitação Vento Pressão Humidade
00:00 +7°C° 2.1 mm 2 m/s 712 mmHg 96%
01:00 +7°C° 1.5 mm 2 m/s 712 mmHg 96%
02:00 +7°C° 1.5 mm 2 m/s 712 mmHg 96%
03:00 +7°C° 1.5 mm 2 m/s 712 mmHg 96%
04:00 +8°C° 0.5 mm 1 m/s 712 mmHg 96%
05:00 +7°C° 0.5 mm 1 m/s 712 mmHg 95%
06:00 +7°C° 0.5 mm 1 m/s 712 mmHg 95%
07:00 +8°C° 0.3 mm 1 m/s 712 mmHg 94%
08:00 +8°C° 0.3 mm 1 m/s 712 mmHg 93%
09:00 +8°C° 0.3 mm 1 m/s 712 mmHg 93%
10:00 +8°C° 0.4 mm 1 m/s 712 mmHg 92%
11:00 +9°C° 0.4 mm 1 m/s 712 mmHg 91%
12:00 +9°C° 0.4 mm 1 m/s 711 mmHg 90%
13:00 +9°C° 0.4 mm 1 m/s 711 mmHg 91%
14:00 +9°C° 0.4 mm 1 m/s 711 mmHg 91%
15:00 +8°C° 0.4 mm 1 m/s 711 mmHg 91%
16:00 +8°C° 0 mm 1 m/s 711 mmHg 93%
17:00 +6°C° 0 mm 0 m/s 712 mmHg 94%
18:00 +6°C° 0 mm 0 m/s 712 mmHg 95%
19:00 +5°C° 0 mm 0 m/s 712 mmHg 94%
20:00 +5°C° 0 mm 0 m/s 712 mmHg 94%
21:00 +5°C° 0 mm 0 m/s 712 mmHg 94%
22:00 +5°C° 0.1 mm 0 m/s 712 mmHg 94%
23:00 +5°C° 0.1 mm 0 m/s 712 mmHg 94%

27 Outubro, Terça-feira

Tempo Temperatura Precipitação Vento Pressão Humidade
00:00 +5°C° 0.1 mm 0 m/s 713 mmHg 93%
01:00 +5°C° 0.1 mm 0 m/s 713 mmHg 94%
02:00 +5°C° 0.1 mm 0 m/s 713 mmHg 94%
03:00 +5°C° 0.1 mm 0 m/s 713 mmHg 95%
04:00 +5°C° 0.1 mm 0 m/s 713 mmHg 95%
05:00 +5°C° 0.1 mm 0 m/s 714 mmHg 95%
06:00 +5°C° 0.1 mm 0 m/s 714 mmHg 95%
07:00 +6°C° 0 mm 0 m/s 714 mmHg 92%
08:00 +8°C° 0 mm 1 m/s 715 mmHg 89%
09:00 +9°C° 0 mm 1 m/s 715 mmHg 86%
10:00 +9°C° 0.1 mm 1 m/s 715 mmHg 83%
11:00 +9°C° 0.1 mm 1 m/s 715 mmHg 80%
12:00 +10°C° 0.1 mm 1 m/s 716 mmHg 77%
13:00 +10°C° 0.1 mm 1 m/s 716 mmHg 78%
14:00 +10°C° 0.1 mm 1 m/s 716 mmHg 79%
15:00 +10°C° 0.1 mm 1 m/s 716 mmHg 79%
16:00 +8°C° 0 mm 1 m/s 716 mmHg 84%
17:00 +7°C° 0 mm 1 m/s 716 mmHg 89%
18:00 +5°C° 0 mm 1 m/s 717 mmHg 93%
19:00 +5°C° 0 mm 1 m/s 717 mmHg 93%
20:00 +5°C° 0 mm 1 m/s 717 mmHg 92%
21:00 +5°C° 0 mm 1 m/s 717 mmHg 92%
22:00 +5°C° 0 mm 1 m/s 717 mmHg 91%
23:00 +4°C° 0 mm 1 m/s 717 mmHg 91%
Mostrar mais